N5ZKK Weather Reports


Display with metric or nautical units.
time (UTC)temp
F
wind
direction
speed
MPH
gust
MPH
rain 1hr
in
rain 24hr
in
rain mn
in
humidity
%
barometer
mb
20260831222651 97 77 5.0 9.0 0.00 0.00 0.00 42 1012.0
20260831222019 98 77 4.0 8.0 0.00 0.00 0.00 41 1016.7
20260831221041 98 43 5.0 10.0 0.00 0.00 0.00 41 1016.9
20260831220017 98 106 6.0 11.0 0.00 0.00 0.00 40 1017.0
20260831215651 97 156 4.0 7.0 0.00 0.00 0.00 40 1012.5
20260831215025 99 99 6.0 9.0 0.00 0.00 0.00 41 1017.1
20260831214027 98 118 4.0 9.0 0.00 0.00 0.00 40 1017.2
20260831213028 98 63 4.0 7.0 0.00 0.00 0.00 41 1017.3
20260831212651 97 88 4.0 7.0 0.00 0.00 0.00 41 1012.7
20260831212031 98 128 5.0 9.0 0.00 0.00 0.00 42 1017.5
20260831211032 97 132 5.0 9.0 0.00 0.00 0.00 43 1017.6
20260831210017 99 89 4.0 7.0 0.00 0.00 0.00 43 1017.7
20260831205651 97 113 5.0 8.0 0.00 0.00 0.00 43 1013.4
20260831205119 96 158 4.0 6.0 0.00 0.00 0.00 44 1017.9
20260831204021 99 99 6.0 12.0 0.00 0.00 0.00 43 1018.1
20260831203023 99 116 6.0 10.0 0.00 0.00 0.00 42 1018.3
20260831202651 98 145 5.0 8.0 0.00 0.00 0.00 42 1013.7
20260831202044 99 137 6.0 8.0 0.00 0.00 0.00 43 1018.5
20260831201026 98 115 5.0 7.0 0.00 0.00 0.00 42 1018.6
20260831200028 98 113 6.0 9.0 0.00 0.00 0.00 43 1018.7
20260831195651 97 145 4.0 7.0 0.00 0.00 0.00 43 1014.3
20260831195024 98 125 6.0 7.0 0.00 0.00 0.00 43 1018.9
20260831194021 98 98 7.0 11.0 0.00 0.00 0.00 42 1019.1
20260831193037 98 135 5.0 8.0 0.00 0.00 0.00 44 1019.3
20260831192651 97 111 4.0 7.0 0.00 0.00 0.00 43 1014.7
20260831192019 97 123 6.0 8.0 0.00 0.00 0.00 43 1019.4
20260831191021 96 153 4.0 7.0 0.00 0.00 0.00 47 1019.4
20260831190023 97 106 6.0 10.0 0.00 0.00 0.00 47 1019.4
20260831185651 96 138 5.0 8.0 0.00 0.00 0.00 46 1015.1
20260831185025 97 124 6.0 9.0 0.00 0.00 0.00 45 1019.6
20260831184027 96 86 4.0 9.0 0.00 0.00 0.00 48 1019.6
20260831183029 95 124 5.0 9.0 0.00 0.00 0.00 50 1019.8
20260831182651 95 122 5.0 11.0 0.00 0.00 0.00 49 1015.4
20260831182051 95 111 5.0 7.0 0.00 0.00 0.00 49 1019.9
20260831181015 95 92 4.0 6.0 0.00 0.00 0.00 51 1019.9
20260831180017 95 92 5.0 8.0 0.00 0.00 0.00 50 1019.8
20260831175651 94 101 5.0 7.0 0.00 0.00 0.00 50 1015.8
20260831175019 94 115 5.0 9.0 0.00 0.00 0.00 50 1020.0
20260831174021 94 140 6.0 8.0 0.00 0.00 0.00 54 1020.1
20260831173043 94 106 7.0 8.0 0.00 0.00 0.00 51 1020.2
20260831172651 94 109 6.0 9.0 0.00 0.00 0.00 52 1016.0
20260831172025 94 68 4.0 10.0 0.00 0.00 0.00 53 1020.4
20260831171042 94 119 5.0 8.0 0.00 0.00 0.00 53 1020.4
20260831170038 93 126 5.0 7.0 0.00 0.00 0.00 55 1020.4
20260831165651 93 97 5.0 9.0 0.00 0.00 0.00 53 1016.1
20260831165032 93 61 6.0 8.0 0.00 0.00 0.00 55 1020.3
20260831164049 94 118 6.0 9.0 0.00 0.00 0.00 54 1020.3
20260831163031 94 113 4.0 8.0 0.00 0.00 0.00 54 1020.4
20260831162651 93 116 4.0 7.0 0.00 0.00 0.00 55 1016.3
20260831162033 93 131 5.0 8.0 0.00 0.00 0.00 57 1020.4
20260831161017 92 68 3.0 6.0 0.00 0.00 0.00 58 1020.4
20260831160019 91 118 5.0 7.0 0.00 0.00 0.00 60 1020.4
20260831155651 90 145 4.0 8.0 0.00 0.00 0.00 59 1016.4
20260831155021 91 117 5.0 8.0 0.00 0.00 0.00 59 1020.3
20260831154023 90 139 5.0 9.0 0.00 0.00 0.00 61 1020.2
20260831153045 91 119 4.0 8.0 0.00 0.00 0.00 61 1020.2
20260831152651 89 90 3.0 6.0 0.00 0.00 0.00 63 1016.5
20260831152027 89 62 4.0 7.0 0.00 0.00 0.00 64 1020.2
20260831151029 88 124 5.0 8.0 0.00 0.00 0.00 65 1020.2
20260831150026 87 115 5.0 6.0 0.00 0.00 0.00 69 1020.1
20260831145651 86 136 4.0 5.0 0.00 0.00 0.00 70 1016.7
20260831145028 86 143 4.0 7.0 0.00 0.00 0.00 71 1020.1
20260831144024 84 119 5.0 8.0 0.00 0.00 0.00 74 1020.1
20260831143040 84 127 3.0 5.0 0.00 0.00 0.00 76 1020.1
20260831142651 83 93 6.0 10.0 0.00 0.00 0.00 76 1017.0
20260831142036 84 125 5.0 8.0 0.00 0.00 0.00 78 1020.1
20260831141018 83 110 4.0 7.0 0.00 0.00 0.00 80 1020.1
20260831140040 81 130 4.0 6.0 0.00 0.00 0.00 82 1020.0
20260831135651 81 117 4.0 6.0 0.00 0.00 0.00 83 1017.1
20260831135022 80 95 4.0 7.0 0.00 0.00 0.00 85 1019.9
20260831134024 79 107 5.0 7.0 0.00 0.00 0.00 87 1019.8
20260831133026 79 109 5.0 7.0 0.00 0.00 0.00 89 1019.8
20260831132651 78 108 4.0 7.0 0.00 0.00 0.00 90 1017.2
20260831132047 78 102 4.0 6.0 0.00 0.00 0.00 91 1019.8
20260831131030 76 110 2.0 4.0 0.00 0.00 0.00 96 1019.8
20260831130032 75 99 3.0 6.0 0.00 0.00 0.00 97 1019.7
20260831125651 74 121 0.0 3.0 0.00 0.00 0.00 97 1017.4
20260831125036 75 107 3.0 5.0 0.00 0.00 0.00 97 1019.6
20260831124018 74 99 3.0 5.0 0.00 0.00 0.00 98 1019.5
20260831123020 74 97 2.0 5.0 0.00 0.00 0.00 98 1019.5
20260831122651 73 0 0.0 0.0 0.00 0.00 0.00 98 1017.4
20260831122022 74 140 1.0 3.0 0.00 0.00 0.00 98 1019.3
20260831121024 74 0.0 0.0 0.00 0.00 0.00 98 1019.3
20260831120020 74 79 0.0 3.0 0.00 0.00 0.00 97 1019.4
20260831115651 74 50 0.0 2.0 0.00 0.00 0.00 97 1017.2
20260831115017 74 77 1.0 3.0 0.00 0.00 0.00 97 1019.3
20260831114025 74 109 3.0 4.0 0.00 0.00 0.00 97 1019.3
20260831113027 75 99 2.0 5.0 0.00 0.00 0.00 96 1019.2
20260831112651 74 122 1.0 3.0 0.00 0.00 0.00 95 1017.0
20260831112049 75 83 2.0 5.0 0.00 0.00 0.00 95 1019.3
20260831111032 75 120 3.0 6.0 0.00 0.00 0.00 95 1019.2
20260831110033 75 118 3.0 5.0 0.00 0.00 0.00 94 1019.2
20260831105651 75 105 2.0 6.0 0.00 0.00 0.00 94 1017.2
20260831105017 75 114 3.0 6.0 0.00 0.00 0.00 94 1019.4
20260831104039 75 122 3.0 5.0 0.00 0.00 0.00 94 1019.4
20260831103019 75 122 4.0 6.0 0.00 0.00 0.00 94 1019.5
20260831102651 74 153 2.0 5.0 0.00 0.00 0.00 94 1017.3
20260831102058 75 124 3.0 6.0 0.00 0.00 0.00 94 1019.5
20260831101040 75 115 3.0 6.0 0.00 0.00 0.00 94 1019.5
20260831100021 75 118 3.0 5.0 0.00 0.00 0.00 93 1019.4
20260831095651 75 126 3.0 6.0 0.00 0.00 0.00 93 1017.1
20260831095023 75 127 4.0 5.0 0.00 0.00 0.00 93 1019.3
20260831094025 75 106 2.0 5.0 0.00 0.00 0.00 93 1019.2
20260831093021 75 111 1.0 4.0 0.00 0.00 0.00 92 1019.2
20260831092651 74 71 1.0 4.0 0.00 0.00 0.00 92 1017.0
20260831092017 75 93 2.0 4.0 0.00 0.00 0.00 92 1019.2
20260831091033 75 85 2.0 5.0 0.00 0.00 0.00 92 1019.3
20260831090015 75 39 2.0 4.0 0.00 0.00 0.00 91 1019.2
20260831085651 75 135 1.0 4.0 0.00 0.00 0.00 90 1016.9
20260831085017 76 112 3.0 4.0 0.00 0.00 0.00 90 1019.2
20260831084019 76 116 3.0 5.0 0.00 0.00 0.00 89 1019.3
20260831083021 76 88 3.0 6.0 0.00 0.00 0.00 88 1019.3
20260831082651 76 104 4.0 6.0 0.00 0.00 0.00 88 1016.9
20260831082023 76 138 3.0 6.0 0.00 0.00 0.00 87 1019.4
20260831081025 77 110 5.0 8.0 0.00 0.00 0.00 87 1019.5
20260831080047 77 112 3.0 6.0 0.00 0.00 0.00 86 1019.6
20260831075651 76 134 3.0 6.0 0.00 0.00 0.00 85 1017.2
20260831075029 77 91 3.0 5.0 0.00 0.00 0.00 84 1019.6
20260831074031 77 93 5.0 7.0 0.00 0.00 0.00 83 1019.6
20260831073015 78 132 4.0 9.0 0.00 0.00 0.00 82 1019.6
20260831072651 77 104 4.0 7.0 0.00 0.00 0.00 82 1017.1
20260831072038 78 114 4.0 8.0 0.00 0.00 0.00 82 1019.5
20260831071020 78 125 4.0 6.0 0.00 0.00 0.00 80 1019.5
20260831070022 78 123 3.0 6.0 0.00 0.00 0.00 79 1019.4
20260831065651 78 106 3.0 5.0 0.00 0.00 0.00 79 1016.8
20260831065018 79 98 2.0 5.0 0.00 0.00 0.00 79 1019.4
20260831064027 79 108 5.0 7.0 0.00 0.00 0.00 79 1019.4
20260831063028 79 105 4.0 8.0 0.00 0.00 0.00 79 1019.5
20260831062651 79 97 3.0 6.0 0.00 0.00 0.00 78 1016.9
20260831062031 79 109 5.0 10.0 0.00 0.00 0.00 78 1019.4
20260831061047 79 96 5.0 8.0 0.00 0.00 0.00 78 1019.3
20260831060049 79 110 4.0 9.0 0.00 0.00 0.00 79 1019.2
20260831055651 78 121 3.0 6.0 0.00 0.00 0.00 79 1016.5
20260831055031 78 95 1.0 4.0 0.00 0.00 0.00 79 1019.1
20260831054033 78 80 2.0 4.0 0.00 0.00 0.00 79 1019.0
20260831053057 78 79 2.0 5.0 0.00 0.00 0.00 80 1019.0
20260831052651 77 109 1.0 3.0 0.00 0.00 0.00 80 1016.5
20260831052019 78 114 2.0 5.0 0.00 0.00 0.00 80 1018.9
20260831051022 77 136 1.0 4.0 0.00 0.00 0.00 79 1018.8
20260831050044 77 99 1.0 2.0 0.00 0.00 0.00 77 1018.7
20260831045651 77 0 0.0 0.0 0.00 0.00 0.00 76 1016.2
20260831045026 78 0.0 0.0 0.00 0.00 0.00 75 1018.7
20260831044048 78 45 0.0 2.0 0.00 0.00 0.00 73 1018.5
20260831043024 79 0.0 0.0 0.00 0.00 0.00 72 1018.5
20260831042651 79 0 0.0 0.0 0.00 0.00 0.00 71 1015.9
20260831042040 79 110 1.0 3.0 0.00 0.00 0.00 71 1018.5
20260831041015 80 128 1.0 3.0 0.00 0.00 0.00 70 1018.3
20260831040018 80 126 2.0 4.0 0.00 0.00 0.00 70 1018.2
20260831035651 79 98 2.0 3.0 0.00 0.00 0.00 71 1015.4
20260831035020 80 166 2.0 4.0 0.00 0.00 0.00 71 1018.1
20260831034022 79 135 2.0 4.0 0.00 0.00 0.00 72 1018.1
20260831033024 78 119 1.0 2.0 0.00 0.00 0.00 75 1018.0
20260831032651 77 225 1.0 2.0 0.00 0.00 0.00 76 1015.5
20260831032046 78 0.0 0.0 0.00 0.00 0.00 77 1018.0
20260831031048 78 250 1.0 2.0 0.00 0.00 0.00 77 1017.9
20260831030030 78 338 0.0 2.0 0.00 0.00 0.00 76 1017.9
20260831025651 78 0 0.0 0.0 0.00 0.00 0.00 74 1015.0
20260831025032 79 0.0 0.0 0.00 0.00 0.00 74 1017.6
20260831024016 80 325 0.0 2.0 0.00 0.00 0.00 73 1017.5
20260831023018 80 0.0 0.0 0.00 0.00 0.00 70 1017.3
20260831022651 80 0 0.0 0.0 0.00 0.00 0.00 68 1014.4
20260831022040 81 0.0 0.0 0.00 0.00 0.00 68 1017.1
20260831021022 82 0.0 0.0 0.00 0.00 0.00 66 1017.0
20260831020024 83 0.0 0.0 0.00 0.00 0.00 64 1016.9
20260831015651 83 0 0.0 0.0 0.00 0.00 0.00 62 1013.8
20260831015020 84 0.0 0.0 0.00 0.00 0.00 61 1017.0
20260831014016 86 315 0.0 2.0 0.00 0.00 0.00 59 1016.8
20260831013030 87 0.0 1.0 0.00 0.00 0.00 57 1016.8
20260831012651 87 139 1.0 3.0 0.00 0.00 0.00 55 1013.3
20260831012033 88 135 1.0 4.0 0.00 0.00 0.00 54 1016.9
20260831011016 88 128 2.0 5.0 0.00 0.00 0.00 54 1016.8
20260831010651 88 126 2.0 4.0 0.00 0.00 0.00 52 1013.1
20260831010019 89 134 3.0 5.0 0.00 0.00 0.00 52 1016.8
20260831005020 90 120 4.0 5.0 0.00 0.00 0.00 50 1016.8
20260831004651 90 120 4.0 5.0 0.00 0.00 0.00 49 1012.8
20260831004021 91 130 4.0 7.0 0.00 0.00 0.00 48 1016.6
20260831003651 91 124 3.0 5.0 0.00 0.00 0.00 47 1012.6
20260831003024 92 129 5.0 8.0 0.00 0.00 0.00 46 1016.6
20260831002651 92 95 4.0 9.0 0.00 0.00 0.00 45 1012.5
20260831002151 92 71 4.0 5.0 0.00 0.00 0.00 46 1012.5
20260831002026 92 71 4.0 6.0 0.00 0.00 0.00 46 1016.6
20260831001518 92 121 4.0 6.0 0.00 0.00 0.00 44 1012.5
20260831001028 93 122 4.0 7.0 0.00 0.00 0.00 44 1016.6
20260831000030 93 86 5.0 10.0 0.00 0.00 0.00 45 1016.6
20260830235518 93 25 3.0 5.0 0.00 0.00 0.00 44 1012.2
20260830235032 94 26 3.0 6.0 0.00 0.00 0.00 44 1016.4
20260830234017 94 74 4.0 7.0 0.00 0.00 0.00 45 1016.6
20260830233518 94 126 4.0 7.0 0.00 0.00 0.00 44 1012.2
20260830233018 94 126 5.0 8.0 0.00 0.00 0.00 45 1016.4
20260830232518 94 96 4.0 8.0 0.00 0.00 0.00 44 1012.1
20260830232021 95 97 5.0 8.0 0.00 0.00 0.00 44 1016.4
20260830231518 94 115 4.0 6.0 0.00 0.00 0.00 44 1012.2
20260830231018 94 102 5.0 8.0 0.00 0.00 0.00 44 1012.3
20260830230025 95 100 5.0 10.0 0.00 0.00 0.00 45 1016.6
20260830225807 96 109 4.0 9.0 0.00 0.00 0.00 43 1012.1
20260830225027 95 87 6.0 9.0 0.00 0.00 0.00 44 1016.6
20260830224029 96 109 4.0 6.0 0.00 0.00 0.00 44 1016.6
20260830223807 96 112 4.0 6.0 0.00 0.00 0.00 43 1012.2
20260830223031 96 136 5.0 8.0 0.00 0.00 0.00 43 1016.6